This is the latest recevied weather packets stored in our database for station/object KI4MRC. If no packets are shown the sender has not sent any weather packets the latest 10 day(s).
| Time | Temp. | Humidity | Pressure | Rain* | Wind** | Luminosity | Snow |
|---|---|---|---|---|---|---|---|
| 1777988373 | 26.11° C | 85% | 1015 hPa | 0.51 mm | - | 511 W/m² | - |
| 1777988071 | 25.56° C | 85% | 1015.2 hPa | 0.51 mm | - | 503 W/m² | - |
| 1777987766 | 25.56° C | 87% | 1015.1 hPa | 0 mm | - | 370 W/m² | - |
| 1777987463 | 24.44° C | 90% | 1015.1 hPa | 0 mm | - | 286 W/m² | - |
| 1777987160 | 24.44° C | 91% | 1015.1 hPa | 0 mm | - | 39 W/m² | - |
| 1777986857 | 24.44° C | 91% | 1015.2 hPa | 0 mm | - | 45 W/m² | - |
| 1777986555 | 24.44° C | 93% | 1014.8 hPa | 0 mm | - | 57 W/m² | - |
| 1777985949 | 23.89° C | 96% | 1014.9 hPa | 0 mm | - | 172 W/m² | - |
| 1777984736 | 23.33° C | 98% | 1014.6 hPa | 0 mm | - | 150 W/m² | - |
| 1777984433 | 23.33° C | 99% | 1014.6 hPa | 0 mm | - | 95 W/m² | - |
| 1777984128 | 23.33° C | 99% | 1014.2 hPa | 0 mm | - | 80 W/m² | - |
| 1777983826 | 22.78° C | 99% | 1014.2 hPa | 0 mm | - | 72 W/m² | - |
| 1777983523 | 22.78° C | 99% | 1014.3 hPa | 0 mm | - | 60 W/m² | - |
| 1777983220 | 22.78° C | 99% | 1014.5 hPa | 0 mm | - | 63 W/m² | - |
| 1777982916 | 22.78° C | 99% | 1014.2 hPa | 0 mm | - | 63 W/m² | - |
| 1777982311 | 22.22° C | 99% | 1014.2 hPa | 0 mm | - | 48 W/m² | - |
| 1777981099 | 21.67° C | 99% | 1014.2 hPa | 0 mm | - | 35 W/m² | - |
| 1777980795 | 21.67° C | 99% | 1014.2 hPa | 0 mm | - | 32 W/m² | - |
| 1777980491 | 21.67° C | 99% | 1014.1 hPa | 0 mm | - | 28 W/m² | - |
| 1777980189 | 21.11° C | 99% | 1014.2 hPa | 0 mm | - | 25 W/m² | - |
| 1777979884 | 21.11° C | 99% | 1014 hPa | 0 mm | - | 24 W/m² | - |
| 1777979276 | 21.11° C | 99% | 1014 hPa | 0 mm | - | 18 W/m² | - |
| 1777978670 | 21.11° C | 99% | 1013.8 hPa | 0 mm | - | 11 W/m² | - |
| 1777977154 | 21.11° C | 99% | 1013.7 hPa | 0 mm | - | 1 W/m² | - |
| 1777976851 | 21.67° C | 99% | 1013.7 hPa | 0 mm | - | 0 W/m² | - |
* Rain latest hour (hover to see other rain measurements)
** Current wind speed in m/s (hover to see current wind gust speed)